N724JS SAWH-SVMI

Flight info

Callsign N724JS
Flight time N/A
Altitude 41000
Route GRA2A GRA T108 GUDUX UT700 PADOG/N0498F430 DCT CBA/N0501F410 DCT SDE DCT TRI/N0486F450 DCT TFE UL793 PUBIT/N0491F430 UL793 LOGON/N0486F450 UL793 EDPAL UQ235 PBL ALDAK1
Aircraft GLF6/M-SBDE2E3FGHIJ4J5M1RWXY/LB1D1

Departure

Time 2026-04-28 16:49
Airport Ushuaia - Malvinas Argentinas International Airport (SAWH)

Arrival

Time N/A
Airport Maiquetía Simón Bolívar International Airport (SVMI)
Time Latitude Longitude Altitude Speed Heading
2026-04-28 16:25 -54.84022 -68.31267 75 ft 0 kts 36°
2026-04-28 16:43 -54.84034 -68.31278 74 ft 2 kts
2026-04-28 16:43 -54.84049 -68.31276 74 ft 2 kts 336°
2026-04-28 16:44 -54.84061 -68.31261 75 ft 2 kts 308°
2026-04-28 16:44 -54.84068 -68.31239 75 ft 2 kts 280°
2026-04-28 16:44 -54.84069 -68.31228 76 ft 0 kts 270°
2026-04-28 16:45 -54.84069 -68.31229 76 ft 0 kts 270°
2026-04-28 16:45 -54.84075 -68.31255 75 ft 3 kts 237°
2026-04-28 16:45 -54.84098 -68.31293 73 ft 5 kts 220°
2026-04-28 16:46 -54.84130 -68.31329 72 ft 5 kts 200°
2026-04-28 16:46 -54.84161 -68.31332 72 ft 4 kts 178°
2026-04-28 16:46 -54.84216 -68.31329 72 ft 10 kts 176°
2026-04-28 16:46 -54.84299 -68.31319 70 ft 14 kts 175°
2026-04-28 16:47 -54.84390 -68.31338 69 ft 12 kts 229°
2026-04-28 16:47 -54.84393 -68.31502 62 ft 7 kts 270°
2026-04-28 16:47 -54.84416 -68.31487 63 ft 3 kts 86°
2026-04-28 16:47 -54.84414 -68.31427 65 ft 10 kts 85°
2026-04-28 16:48 -54.84399 -68.31178 74 ft 32 kts 84°
2026-04-28 16:48 -54.84369 -68.30617 82 ft 60 kts 84°
2026-04-28 16:48 -54.84330 -68.29711 65 ft 96 kts 86°
2026-04-28 16:48 -54.84266 -68.28115 192 ft 155 kts 86°
2026-04-28 16:49 -54.84206 -68.26509 1388 ft 129 kts 85°
2026-04-28 16:49 -54.84389 -68.24807 1792 ft 176 kts 109°
2026-04-28 16:49 -54.84872 -68.22562 2279 ft 225 kts 107°
2026-04-28 16:49 -54.85414 -68.19802 3091 ft 262 kts 106°
2026-04-28 16:50 -54.85995 -68.16645 4147 ft 290 kts 105°
2026-04-28 16:50 -54.86597 -68.13227 5365 ft 312 kts 105°
2026-04-28 16:50 -54.87223 -68.09593 6708 ft 329 kts 104°
2026-04-28 16:50 -54.87865 -68.05817 8267 ft 322 kts 104°
2026-04-28 16:51 -54.88454 -68.02331 9829 ft 306 kts 104°
2026-04-28 16:51 -54.89056 -67.98646 10142 ft 335 kts 100°
2026-04-28 16:51 -54.89046 -67.94450 10213 ft 361 kts 71°
2026-04-28 16:51 -54.87861 -67.90758 11015 ft 355 kts 41°
2026-04-28 16:52 -54.85869 -67.88482 12086 ft 344 kts 15°
2026-04-28 16:52 -54.83526 -67.87975 12958 ft 341 kts 353°
2026-04-28 16:52 -54.81171 -67.88112 13887 ft 347 kts 357°
2026-04-28 16:52 -54.78724 -67.87998 14757 ft 355 kts 358°
2026-04-28 16:53 -54.76267 -67.87760 15741 ft 358 kts 359°
2026-04-28 16:53 -54.73807 -67.87470 16578 ft 365 kts
2026-04-28 16:53 -54.71275 -67.87141 17502 ft 369 kts
2026-04-28 16:53 -54.68693 -67.86796 18451 ft 373 kts
2026-04-28 16:54 -54.66102 -67.86445 19212 ft 381 kts
2026-04-28 16:54 -54.63466 -67.86084 19999 ft 387 kts
2026-04-28 16:54 -54.60801 -67.85717 20884 ft 389 kts
2026-04-28 16:54 -54.59020 -67.85474 21464 ft 391 kts 360°
2026-04-28 16:55 -54.55371 -67.84979 22458 ft 397 kts 359°
2026-04-28 16:55 -54.52618 -67.84605 23156 ft 402 kts 359°
2026-04-28 16:55 -54.49856 -67.84228 23878 ft 406 kts 358°
2026-04-28 16:55 -54.47013 -67.83845 24608 ft 411 kts 359°
2026-04-28 16:56 -54.44154 -67.83459 25322 ft 416 kts 358°
2026-04-28 16:56 -54.41291 -67.83072 26005 ft 420 kts 358°
2026-04-28 16:56 -54.38358 -67.82677 26682 ft 425 kts 359°
2026-04-28 16:56 -54.35396 -67.82277 27242 ft 432 kts 358°
2026-04-28 16:57 -54.32410 -67.81875 27974 ft 434 kts 359°
2026-04-28 16:57 -54.29402 -67.81469 28591 ft 439 kts 358°
2026-04-28 16:57 -54.26364 -67.81063 29129 ft 444 kts 358°
2026-04-28 16:57 -54.23283 -67.80647 29837 ft 447 kts 358°
2026-04-28 16:58 -54.20194 -67.80238 30311 ft 453 kts 358°
2026-04-28 16:58 -54.17039 -67.79812 31140 ft 451 kts 358°
2026-04-28 16:58 -54.13952 -67.79394 32146 ft 444 kts 357°
2026-04-28 16:58 -54.10941 -67.78991 33003 ft 439 kts 357°
2026-04-28 16:59 -54.07886 -67.78588 33635 ft 439 kts 356°
2026-04-28 16:59 -54.04883 -67.78188 34310 ft 437 kts 356°
2026-04-28 16:59 -54.01865 -67.77792 34895 ft 435 kts 356°
2026-04-28 16:59 -53.98871 -67.77397 35289 ft 437 kts 357°
2026-04-28 17:00 -53.95866 -67.77001 35771 ft 436 kts 357°
2026-04-28 17:00 -53.92812 -67.76598 36063 ft 439 kts 357°
2026-04-28 17:00 -53.89788 -67.76200 36305 ft 443 kts 357°
2026-04-28 17:00 -53.86715 -67.75794 36914 ft 440 kts 358°
2026-04-28 17:01 -53.83655 -67.75391 37328 ft 442 kts 358°
2026-04-28 17:01 -53.80597 -67.74991 37593 ft 447 kts 358°
2026-04-28 17:01 -53.77511 -67.74474 38054 ft 452 kts
2026-04-28 17:01 -53.74475 -67.73138 38495 ft 456 kts 10°
2026-04-28 17:02 -53.71414 -67.71684 38782 ft 459 kts 10°
2026-04-28 17:02 -53.69362 -67.70707 39079 ft 459 kts 10°
2026-04-28 17:02 -53.65281 -67.68774 39553 ft 459 kts 11°
2026-04-28 17:02 -53.62236 -67.67330 39825 ft 461 kts 10°
2026-04-28 17:03 -53.56086 -67.64425 40423 ft 461 kts 11°
2026-04-28 17:03 -53.52999 -67.62971 40684 ft 462 kts 11°
2026-04-28 17:03 -53.49905 -67.61516 40897 ft 464 kts 11°
2026-04-28 17:04 -53.43714 -67.58610 41432 ft 464 kts 11°
2026-04-28 17:04 -53.40639 -67.57169 41656 ft 465 kts 11°
2026-04-28 17:05 -53.34415 -67.54261 42097 ft 467 kts 11°
2026-04-28 17:05 -53.31264 -67.52792 42305 ft 469 kts 11°
2026-04-28 17:06 -53.21647 -67.48325 42327 ft 492 kts 11°
2026-04-28 17:06 -53.11603 -67.43678 42325 ft 510 kts 12°
2026-04-28 17:07 -53.04719 -67.40506 42325 ft 518 kts 11°
2026-04-28 17:07 -52.97783 -67.37322 42321 ft 519 kts 12°
2026-04-28 17:08 -52.90850 -67.34147 42318 ft 519 kts 11°
2026-04-28 17:08 -52.83910 -67.30984 42308 ft 519 kts 11°
2026-04-28 17:09 -52.76968 -67.27827 42309 ft 519 kts 11°
2026-04-28 17:09 -52.69979 -67.25626 42320 ft 514 kts
2026-04-28 17:10 -52.62954 -67.23918 42312 ft 513 kts
2026-04-28 17:10 -52.55893 -67.22192 42303 ft 514 kts
2026-04-28 17:11 -52.48877 -67.20483 42300 ft 514 kts
2026-04-28 17:11 -52.41800 -67.18766 42304 ft 515 kts
2026-04-28 17:12 -52.34743 -67.17057 42300 ft 515 kts
2026-04-28 17:12 -52.27725 -67.15363 42303 ft 514 kts
2026-04-28 17:13 -52.20653 -67.13663 42298 ft 514 kts
2026-04-28 17:13 -52.13620 -67.11977 42310 ft 514 kts
2026-04-28 17:14 -52.06549 -67.10287 42293 ft 514 kts
2026-04-28 17:14 -51.99520 -67.08614 42279 ft 514 kts
2026-04-28 17:15 -51.92467 -67.06939 42276 ft 515 kts
2026-04-28 17:15 -51.85419 -67.05271 42285 ft 515 kts
2026-04-28 17:16 -51.78341 -67.03601 42288 ft 515 kts
2026-04-28 17:16 -51.71291 -67.01943 42284 ft 515 kts
2026-04-28 17:17 -51.64190 -67.00279 42279 ft 516 kts
2026-04-28 17:17 -51.57149 -66.98635 42278 ft 514 kts
2026-04-28 17:18 -51.50114 -66.96996 42280 ft 514 kts
2026-04-28 17:18 -51.43024 -66.95353 42289 ft 515 kts
2026-04-28 17:19 -51.35975 -66.93720 42274 ft 515 kts
2026-04-28 17:19 -51.28929 -66.92097 42274 ft 515 kts
2026-04-28 17:20 -51.23035 -66.90743 42271 ft 515 kts
2026-04-28 17:20 -51.14755 -66.88842 42275 ft 516 kts
2026-04-28 17:21 -51.07709 -66.87234 42276 ft 516 kts
2026-04-28 17:22 -50.97084 -66.84815 42262 ft 516 kts
2026-04-28 17:22 -50.90003 -66.83209 42266 ft 515 kts
2026-04-28 17:23 -50.79382 -66.80810 42267 ft 516 kts
2026-04-28 17:23 -50.72276 -66.79210 42268 ft 516 kts
2026-04-28 17:24 -50.65230 -66.77630 42260 ft 515 kts
2026-04-28 17:24 -50.58150 -66.76047 42268 ft 514 kts
2026-04-28 17:25 -50.47544 -66.73686 42279 ft 515 kts
2026-04-28 17:26 -50.40510 -66.72123 42284 ft 515 kts
2026-04-28 17:26 -50.33418 -66.70554 42273 ft 515 kts
2026-04-28 17:27 -50.26371 -66.69000 42281 ft 516 kts
2026-04-28 17:27 -50.19295 -66.67443 42278 ft 514 kts
2026-04-28 17:28 -50.12221 -66.65892 42273 ft 515 kts
2026-04-28 17:28 -50.01636 -66.63579 42269 ft 513 kts
2026-04-28 17:29 -49.94617 -66.62051 42272 ft 513 kts
2026-04-28 17:30 -49.83997 -66.59747 42274 ft 514 kts
2026-04-28 17:30 -49.73455 -66.57472 42282 ft 514 kts
2026-04-28 17:31 -49.62866 -66.55196 42276 ft 513 kts
2026-04-28 17:32 -49.52268 -66.52927 42283 ft 513 kts
2026-04-28 17:32 -49.45235 -66.51426 42291 ft 513 kts
2026-04-28 17:33 -49.38188 -66.49928 42280 ft 513 kts
2026-04-28 17:33 -49.33509 -66.48936 42300 ft 512 kts
2026-04-28 17:34 -49.24124 -66.46951 42298 ft 513 kts
2026-04-28 17:34 -49.17093 -66.45469 42293 ft 512 kts
2026-04-28 17:35 -49.10069 -66.43993 42299 ft 512 kts
2026-04-28 17:35 -49.03035 -66.42518 42295 ft 511 kts
2026-04-28 17:36 -48.96009 -66.41052 42299 ft 510 kts
2026-04-28 17:36 -48.88985 -66.39585 42314 ft 511 kts
2026-04-28 17:37 -48.81969 -66.38128 42318 ft 511 kts
2026-04-28 17:37 -48.74957 -66.36675 42311 ft 511 kts
2026-04-28 17:38 -48.67969 -66.35230 42316 ft 511 kts
2026-04-28 17:38 -48.60965 -66.33787 42312 ft 511 kts
2026-04-28 17:39 -48.53944 -66.32343 42322 ft 509 kts
2026-04-28 17:40 -48.43450 -66.30196 42326 ft 508 kts
2026-04-28 17:40 -48.36457 -66.28768 42312 ft 507 kts
2026-04-28 17:41 -48.29493 -66.27351 42331 ft 509 kts
2026-04-28 17:41 -48.22529 -66.25938 42326 ft 507 kts
2026-04-28 17:42 -48.15530 -66.24522 42329 ft 507 kts
2026-04-28 17:42 -48.08594 -66.23122 42318 ft 506 kts
2026-04-28 17:43 -48.01619 -66.21719 42334 ft 507 kts
2026-04-28 17:43 -47.94629 -66.20319 42342 ft 507 kts
2026-04-28 17:44 -47.87658 -66.18924 42355 ft 508 kts
2026-04-28 17:44 -47.80696 -66.17536 42353 ft 505 kts
2026-04-28 17:45 -47.73785 -66.16163 42355 ft 506 kts
2026-04-28 17:45 -47.66792 -66.14776 42348 ft 508 kts
2026-04-28 17:46 -47.59787 -66.13393 42351 ft 507 kts
2026-04-28 17:46 -47.52811 -66.12013 42357 ft 509 kts
2026-04-28 17:47 -47.45848 -66.10643 42353 ft 508 kts
2026-04-28 17:47 -47.38863 -66.09270 42363 ft 506 kts
2026-04-28 17:48 -47.31905 -66.07907 42367 ft 507 kts
2026-04-28 17:48 -47.24971 -66.06552 42371 ft 506 kts
2026-04-28 17:49 -47.17980 -66.05192 42393 ft 507 kts
2026-04-28 17:49 -47.11008 -66.03836 42393 ft 508 kts
2026-04-28 17:50 -47.04010 -66.02481 42390 ft 510 kts
2026-04-28 17:50 -46.97020 -66.01128 42380 ft 508 kts
2026-04-28 17:51 -46.89984 -65.99773 42406 ft 509 kts
2026-04-28 17:51 -46.83020 -65.98433 42406 ft 508 kts
2026-04-28 17:52 -46.76035 -65.97094 42407 ft 509 kts
2026-04-28 17:52 -46.65531 -65.95084 42407 ft 509 kts
2026-04-28 17:53 -46.58520 -65.93748 42410 ft 508 kts
2026-04-28 17:53 -46.51516 -65.92418 42424 ft 510 kts
2026-04-28 17:54 -46.44497 -65.91087 42435 ft 509 kts
2026-04-28 17:54 -46.37472 -65.89761 42437 ft 510 kts
2026-04-28 17:55 -46.30464 -65.88438 42434 ft 510 kts
2026-04-28 17:55 -46.23445 -65.87118 42439 ft 509 kts
2026-04-28 17:56 -46.16405 -65.85644 42447 ft 510 kts
2026-04-28 17:56 -46.09379 -65.84122 42447 ft 512 kts
2026-04-28 17:57 -46.02348 -65.82605 42446 ft 513 kts
2026-04-28 17:57 -45.95342 -65.81095 42460 ft 511 kts
2026-04-28 17:58 -45.88300 -65.79585 42451 ft 514 kts
2026-04-28 17:58 -45.81261 -65.78075 42447 ft 513 kts
2026-04-28 17:59 -45.74237 -65.76575 42450 ft 513 kts
2026-04-28 17:59 -45.67161 -65.75066 42457 ft 514 kts
2026-04-28 18:00 -45.60130 -65.73573 42473 ft 513 kts
2026-04-28 18:00 -45.53069 -65.72075 42505 ft 511 kts
2026-04-28 18:01 -45.49684 -65.71350 43756 ft 470 kts
2026-04-28 18:01 -45.46530 -65.70691 44293 ft 460 kts
2026-04-28 18:01 -45.43373 -65.70024 44448 ft 462 kts
2026-04-28 18:01 -45.40210 -65.69359 44472 ft 468 kts
2026-04-28 18:02 -45.33691 -65.67986 44486 ft 482 kts
2026-04-28 18:02 -45.26950 -65.66572 44497 ft 496 kts
2026-04-28 18:03 -45.20054 -65.65125 44497 ft 508 kts
2026-04-28 18:03 -45.12997 -65.63650 44506 ft 519 kts
2026-04-28 18:04 -45.05856 -65.62161 44512 ft 526 kts
2026-04-28 18:04 -44.98608 -65.60653 44502 ft 529 kts
2026-04-28 18:05 -44.92541 -65.59393 44511 ft 529 kts
2026-04-28 18:05 -44.84082 -65.57642 44513 ft 529 kts
2026-04-28 18:06 -44.76797 -65.56140 44519 ft 529 kts
2026-04-28 18:06 -44.69528 -65.54642 44521 ft 529 kts
2026-04-28 18:07 -44.62302 -65.53160 44515 ft 529 kts
2026-04-28 18:07 -44.55025 -65.51671 44505 ft 528 kts
2026-04-28 18:08 -44.47768 -65.50186 44514 ft 527 kts
2026-04-28 18:08 -44.40546 -65.48716 44502 ft 527 kts
2026-04-28 18:09 -44.33309 -65.47243 44520 ft 527 kts
2026-04-28 18:09 -44.26071 -65.45778 44525 ft 526 kts
2026-04-28 18:10 -44.18876 -65.44321 44532 ft 525 kts
2026-04-28 18:10 -44.11604 -65.42855 44552 ft 526 kts
2026-04-28 18:11 -44.04399 -65.41406 44546 ft 526 kts
2026-04-28 18:11 -43.97177 -65.39954 44548 ft 527 kts
2026-04-28 18:12 -43.89938 -65.38505 44535 ft 526 kts
2026-04-28 18:12 -43.82713 -65.37063 44547 ft 528 kts
2026-04-28 18:13 -43.75478 -65.35620 44538 ft 527 kts
2026-04-28 18:13 -43.68241 -65.34180 44537 ft 524 kts
2026-04-28 18:14 -43.61018 -65.32750 44538 ft 525 kts
2026-04-28 18:14 -43.53842 -65.31329 44561 ft 524 kts
2026-04-28 18:15 -43.46638 -65.29907 44552 ft 525 kts
2026-04-28 18:15 -43.39424 -65.28487 44577 ft 525 kts
2026-04-28 18:16 -43.32186 -65.27067 44585 ft 526 kts
2026-04-28 18:16 -43.24988 -65.25655 44589 ft 528 kts
2026-04-28 18:17 -43.17752 -65.24315 44593 ft 526 kts
2026-04-28 18:17 -43.10503 -65.23143 44598 ft 525 kts
2026-04-28 18:18 -43.03250 -65.21968 44576 ft 525 kts
2026-04-28 18:18 -42.97228 -65.20992 44591 ft 524 kts
2026-04-28 18:19 -42.88792 -65.19630 44583 ft 525 kts
2026-04-28 18:19 -42.81551 -65.18466 44587 ft 526 kts
2026-04-28 18:20 -42.74311 -65.17303 44603 ft 527 kts
2026-04-28 18:20 -42.66994 -65.16129 44578 ft 529 kts
2026-04-28 18:21 -42.59727 -65.14967 44593 ft 529 kts
2026-04-28 18:21 -42.52471 -65.13811 44587 ft 528 kts
2026-04-28 18:22 -42.45171 -65.12648 44589 ft 528 kts
2026-04-28 18:22 -42.37868 -65.11488 44583 ft 528 kts
2026-04-28 18:23 -42.30605 -65.10341 44585 ft 527 kts
2026-04-28 18:23 -42.23329 -65.09189 44586 ft 528 kts
2026-04-28 18:24 -42.17269 -65.08233 44591 ft 528 kts
2026-04-28 18:24 -42.08782 -65.06899 44599 ft 529 kts